weather.gov     
National Weather Service

Regional Weather Roundup
NWS Homepage
This page is being discontinued on March 12, 2014.
The same data is available at this site. Please update your bookmarks.
Thank you, and we apologize for the inconvenience.
Please send an email to SR-SRH.Webmaster@noaa.gov with any concerns.


Current Version
Previous Version:    01  02  03  04  05  06  07  08  09  10  11  12  13  14  15  16  17  18  19  20  21  22  23  24  25  26  27  28  29  30  
   31  32  33  34  35  36  37  38  39  40  41  42  43  44  45  46  47  48  49  50  51  52  53  54  
[Printable]
908
ASUS43 KIWX 191010
RWRIWX

KIWX WEATHER ROUNDUP
NATIONAL WEATHER SERVICE NORTHERN INDIANA
600 AM EDT SAT APR 19 2014

NOTE: "FAIR" INDICATES FEW OR NO CLOUDS BELOW 12,000 FEET WITH NO
SIGNIFICANT WEATHER AND/OR OBSTRUCTIONS TO VISIBILITY.

* THESE STATIONS ARE NOT UNDER NWS QUALITY CONTROL. THEY ALSO MAY NOT
  REPORT WEATHER SUCH AS PRECIPITATION OR FOG.

INZ001>027-191100-
NORTHERN INDIANA

CITY           SKY/WX    TMP DP  RH WIND       PRES   REMARKS
GARY*          CLEAR     37  34  87 NE5       30.36S
VALPARAISO     CLEAR     32  27  81 NE6       30.34S WCI  26
MICHIGAN CITY* CLEAR     30  28  93 CALM      30.36R
LAPORTE*       CLEAR     35  28  76 NE6       30.35R WCI  30
SOUTH BEND     CLEAR     34  27  75 NE5       30.36R WCI  30
GOSHEN         CLEAR     38  32  79 NE6       30.34R
MONTICELLO*    CLEAR     36  27  69 NE7       30.30F
LOGANSPORT*    CLEAR     36  27  69 NE6       30.32S
ROCHESTER*     CLEAR     37  30  75 NE3       30.33S
WARSAW*        CLEAR     36  32  87 E6        30.34R
ANGOLA*        CLEAR     37  34  87 E7        30.35S
FORT WAYNE     CLEAR     40  36  86 E13       30.35R
HUNTINGTON*    FAIR      37  32  82 NE5       30.33R
PERU/GRISSOM   CLEAR     36  32  87 NE10      30.31R
MARION*        CLEAR     40  32  74 NE9       30.31S

$$
INZ028>050-191100-
CENTRAL INDIANA

CITY           SKY/WX    TMP DP  RH WIND       PRES   REMARKS
LAFAYETTE      CLEAR     36  25  64 NE6       30.30F
KOKOMO*        CLEAR     37  30  75 NE8       30.31S
MUNCIE*        CLEAR     40  34  79 NE6       30.30R
INDIANAPOLIS   CLEAR     41  34  76 NE9       30.29R

$$
MIZ043>046-050>051-056>058-064>065-071>073-077>080-191100-
SOUTHWEST LOWER MICHIGAN

CITY           SKY/WX    TMP DP  RH WIND       PRES   REMARKS
BATTLE CREEK   CLEAR     35  29  78 E10       30.38R WCI  27
BENTON HARBOR  CLEAR     35  29  78 E9        30.36R WCI  28
COLDWATER*     CLEAR     37  34  90 NE8       30.36R
HILLSDALE*     CLEAR     36  31  82 E9G17     30.37R
HOLLAND        CLEAR     35  27  72 NE8       30.40S WCI  29
GRAND RAPIDS   CLEAR     34  26  72 E9        30.41R WCI  27
KALAMAZOO      CLEAR     36  30  79 NE6       30.38R
STURGIS*       CLEAR     37  34  87 NE7       30.35R
THREE RIVERS*  FAIR      38  31  78 NE6       30.37R

$$
OHZ001>008-015>018-024>025-191100-
NORTHWEST OHIO

CITY           SKY/WX    TMP DP  RH WIND       PRES   REMARKS
WAUSEON*       CLOUDY    36  30  80 NE10      30.38R
DEFIANCE       CLEAR     38  31  76 NE7       30.37R
FINDLAY        CLEAR     38  33  82 NE16      30.34R
TOLEDO EXPRESS CLEAR     36  29  75 NE9       30.38R
TOLEDO METCALF CLEAR     38  31  76 NE9       30.39R
LIMA           CLEAR     39  36  89 NE10      30.33R

$$
&&




U.S. Dept. of Commerce
NOAA National Weather Service
1325 East West Highway
Silver Spring, MD 20910
E-mail: w-nws.webmaster@noaa.gov
Page last modified: May 16, 2007
NATIONAL WEATHER SERVICE: for Safety, for Work, for Fun - FOR LIFE